Aeroporto :
LOGIN :

Iscrizione | Disclaimer

   EN    FR    IT 

 










Sommario :    VFR   VFR Marginale   IFR   IFR Intensivo   IFR Molto Intensivo
Visibilità : 
Base nubi : 
>= 8 km
>= 3000ft
5 / 8 km
1000 / 3000 ft
1500m / 5 km
500 / 1000 ft
800 / 1500m
200 / 500 ft
< 800m
< 200 ft
Simboli :   Temporali  Nebbia  Neve Forte  Precipitazioni Forti  Vento > 20 kt
SIGMETs :   Varie  Temporali  Ghiacco  Turbolenza  Onda orograficha  Ceneri Vulcaniche







- Altitudine del aeroporto : 401 ft
- Codice IATA : LEQ
- Carte del aeroporto


EGHC - Land's End

ULTIMO METAR :
  • 201420Z 17008KT CAVOK 16/11 Q1031

METARs OBSOLETI :
  • 201350Z 17010KT CAVOK 15/11 Q1031
  • 201320Z 15009KT CAVOK 16/11 Q1031
  • 201250Z 15009KT CAVOK 16/10 Q1031
  • 201220Z 15011KT CAVOK 16/10 Q1031
  • 201150Z 16009KT CAVOK 16/10 Q1032
  • 201120Z 15008KT CAVOK 16/10 Q1032

TAF TAF EGHC
Valido dal 20 a 15 ore il 20 a 18 ore UTC


201358Z 2015/2018 17006KT 9999 FEW045
Nessun NOTAM noto per questo aeroporto.



MetMap, La meteo Aeronautica in un colpo d'occhio ! - Copyright ORBIFLY Dicembre 2007 - Disclaimer

ORBIFLY MET'MAP TEAM :

Programmazione e sviluppo : Alexandra Zaïnal
Concezione e sviluppo : Baudouin d'Aumeries
Co-Programmazione e sviluppo : Marc-Olivier Méhu
Supporto tecnico e logistico : Manuel Goepfert
Aiuto per la traduzione : Arnaldo La Scala

Contatto : metmap@orbifly.com




FONTI E CREDITI :

   NOAA